South St. Paul, MN

1:36 PM CDT on April 29, 2017 (GMT -0500)
South Saint Paul Municipal-Fleming

Weather History for KSGS - October, 2012

Change the Weather History Date:

Friday, October 26, 2012

  Actual Average (KSTP) Record (KSTP)
Temperature  
Mean Temperature 37 °F -  
Max Temperature 41 °F 51 °F 68 °F (2000)
Min Temperature 32 °F 36 °F 23 °F (1997)
Degree Days  
Heating Degree Days 28    
Moisture  
Dew Point 24 °F    
Average Humidity 58    
Maximum Humidity 78    
Minimum Humidity 47    
Precipitation  
Precipitation 0.00 in - - ()
Sea Level Pressure  
Sea Level Pressure 30.30 in    
Wind  
Wind Speed 10 mph (WNW)    
Max Wind Speed 20 mph    
Max Gust Speed 24 mph    
Visibility 10 miles    
Events      
Averages and records for this station are not official NWS values.
T = Trace of Precipitation, MM = Missing Value Source: NWS Daily Summary

Daily Weather History Graph

Daily Weather History Graph

Search for Another Location

Airport or City:

Trip Planner

Search our weather history database for the weather conditions in past years. The results will help you decide how hot, cold, wet, or windy it might be!

Date:

Astronomy

Oct. 26, 2012 Rise Set
Actual Time 7:42 AM CDT 6:08 PM CDT
Civil Twilight 7:12 AM CDT 6:38 PM CDT
Nautical Twilight 6:38 AM CDT 7:12 PM CDT
Astronomical Twilight 6:04 AM CDT 7:46 PM CDT
Moon 4:29 PM CDT (10/26) 4:33 AM CDT (10/26)
Length of Visible Light 11h 25m
Length of Day
10h 25m
Waxing Gibbous, 91% of the Moon is Illuminated
Oct 26
Waxing Gibbous
Oct 29
Full
Nov 6
Last Quarter
Nov 13
New
Nov 20
First Quarter

Hourly Weather History & Observations

Time (CDT) Temp. Windchill Dew Point Humidity Pressure Visibility Wind Dir Wind Speed Gust Speed Precip Events Conditions
12:12 AM 39.4 °F 32.3 °F 25.0 °F 56% 30.15 in 10.0 mi West 11.5 mph 20.7 mph N/A   Overcast
12:32 AM 39.4 °F 32.7 °F 25.3 °F 57% 30.16 in 10.0 mi WNW 10.4 mph 18.4 mph N/A   Overcast
1:12 AM 38.7 °F 31.4 °F 25.2 °F 58% 30.17 in 10.0 mi West 11.5 mph 19.6 mph N/A   Overcast
1:32 AM 38.5 °F 30.7 °F 24.8 °F 58% 30.17 in 10.0 mi WNW 12.7 mph 20.7 mph N/A   Mostly Cloudy
1:52 AM 38.3 °F 30.1 °F 24.8 °F 58% 30.18 in 10.0 mi West 13.8 mph 17.3 mph N/A   Scattered Clouds
2:12 AM 37.8 °F 30.7 °F 24.8 °F 60% 30.18 in 10.0 mi West 10.4 mph 17.3 mph N/A   Clear
2:32 AM 37.4 °F 29.8 °F 24.8 °F 60% 30.19 in 10.0 mi West 11.5 mph 17.3 mph N/A   Clear
2:52 AM 37.0 °F 30.4 °F 25.5 °F 63% 30.20 in 10.0 mi West 9.2 mph - N/A   Clear
3:12 AM 36.9 °F 30.7 °F 26.1 °F 65% 30.20 in 10.0 mi West 8.1 mph - N/A   Clear
3:32 AM 36.7 °F 29.9 °F 26.2 °F 66% 30.20 in 10.0 mi West 9.2 mph 18.4 mph N/A   Clear
3:52 AM 36.5 °F 28.2 °F 26.2 °F 66% 30.20 in 10.0 mi West 12.7 mph 17.3 mph N/A   Clear
4:12 AM 36.3 °F 28.4 °F 26.2 °F 67% 30.20 in 10.0 mi West 11.5 mph 17.3 mph N/A   Clear
4:32 AM 36.0 °F 29.0 °F 26.1 °F 67% 30.20 in 10.0 mi West 9.2 mph - N/A   Clear
4:52 AM 35.8 °F 27.8 °F 26.2 °F 68% 30.21 in 10.0 mi WNW 11.5 mph 17.3 mph N/A   Clear
5:12 AM 35.6 °F 28.0 °F 26.4 °F 69% 30.22 in 10.0 mi WNW 10.4 mph - N/A   Clear
5:32 AM 35.6 °F 28.6 °F 26.6 °F 70% 30.23 in 10.0 mi WNW 9.2 mph - N/A   Clear
5:52 AM 35.2 °F 28.1 °F 26.6 °F 71% 30.24 in 10.0 mi West 9.2 mph - N/A   Clear
6:12 AM 35.1 °F 27.4 °F 26.6 °F 71% 30.24 in 10.0 mi WNW 10.4 mph 16.1 mph N/A   Clear
6:32 AM 35.2 °F 27.6 °F 26.4 °F 70% 30.25 in 10.0 mi West 10.4 mph 16.1 mph N/A   Clear
6:52 AM 35.2 °F 27.6 °F 26.2 °F 70% 30.27 in 10.0 mi West 10.4 mph 17.3 mph N/A   Clear
7:12 AM 35.1 °F 28.6 °F 26.2 °F 70% 30.28 in 10.0 mi West 8.1 mph - N/A   Clear
7:52 AM 35.1 °F 29.3 °F 26.6 °F 71% 30.30 in 10.0 mi West 6.9 mph - N/A   Mostly Cloudy
8:32 AM 35.6 °F 29.9 °F 27.1 °F 71% 30.32 in 10.0 mi WSW 6.9 mph - N/A   Overcast
8:52 AM 36.5 °F 31.0 °F 26.4 °F 67% 30.32 in 10.0 mi West 6.9 mph - N/A   Overcast
9:12 AM 37.4 °F 29.3 °F 24.8 °F 60% 30.33 in 10.0 mi West 12.7 mph 19.6 mph N/A   Overcast
9:32 AM 37.8 °F 31.3 °F 24.1 °F 58% 30.34 in 10.0 mi West 9.2 mph 16.1 mph N/A   Overcast
9:52 AM 38.3 °F 28.7 °F 23.0 °F 54% 30.34 in 10.0 mi WNW 18.4 mph - N/A   Overcast
10:12 AM 38.3 °F 31.4 °F 22.8 °F 54% 30.35 in 10.0 mi WNW 10.4 mph 19.6 mph N/A   Overcast
10:32 AM 38.5 °F 28.6 °F 22.3 °F 52% 30.35 in 10.0 mi West 19.6 mph 24.2 mph N/A   Overcast
10:52 AM 39.2 °F 30.8 °F 22.5 °F 51% 30.36 in 10.0 mi NW 15.0 mph 20.7 mph N/A   Overcast
11:12 AM 39.0 °F 30.3 °F 22.5 °F 52% 30.36 in 10.0 mi West 16.1 mph 20.7 mph N/A   Overcast
11:32 AM 39.4 °F 31.8 °F 22.5 °F 51% 30.36 in 10.0 mi WNW 12.7 mph 19.6 mph N/A   Overcast
11:52 AM 39.6 °F 32.1 °F 22.1 °F 50% 30.36 in 10.0 mi WNW 12.7 mph 20.7 mph N/A   Overcast
12:12 PM 39.9 °F 32.1 °F 22.3 °F 49% 30.36 in 10.0 mi NW 13.8 mph 18.4 mph N/A   Overcast
12:32 PM 40.1 °F 33.6 °F 21.9 °F 48% 30.35 in 10.0 mi NW 10.4 mph 20.7 mph N/A   Overcast
12:52 PM 40.6 °F 33.4 °F 22.1 °F 48% 30.35 in 10.0 mi West 12.7 mph 19.6 mph N/A   Overcast
1:12 PM 41.0 °F 33.5 °F 22.3 °F 47% 30.35 in 10.0 mi WNW 13.8 mph 17.3 mph N/A   Overcast
1:32 PM 40.1 °F 33.6 °F 22.5 °F 49% 30.34 in 10.0 mi WNW 10.4 mph 18.4 mph N/A   Overcast
1:52 PM 39.7 °F 32.7 °F 21.9 °F 49% 30.35 in 10.0 mi WNW 11.5 mph 19.6 mph N/A   Overcast
2:12 PM 39.6 °F 33.5 °F 22.8 °F 51% 30.35 in 10.0 mi WNW 9.2 mph 19.6 mph N/A   Overcast
2:32 PM 39.6 °F 33.5 °F 22.3 °F 50% 30.35 in 10.0 mi West 9.2 mph 18.4 mph N/A   Overcast
2:52 PM 39.6 °F 31.7 °F 21.6 °F 49% 30.35 in 10.0 mi WNW 13.8 mph 17.3 mph N/A   Overcast
3:12 PM 39.7 °F 34.3 °F 21.6 °F 48% 30.34 in 10.0 mi WNW 8.1 mph - N/A   Overcast
3:32 PM 39.9 °F 33.4 °F 21.7 °F 48% 30.34 in 10.0 mi West 10.4 mph - N/A   Overcast
3:52 PM 40.1 °F 33.6 °F 21.6 °F 48% 30.34 in 10.0 mi West 10.4 mph - N/A   Overcast
4:12 PM 40.1 °F 36.1 °F 22.1 °F 49% 30.34 in 10.0 mi WNW 5.8 mph - N/A   Overcast
4:32 PM 39.7 °F 33.7 °F 22.3 °F 50% 30.34 in 10.0 mi West 9.2 mph - N/A   Overcast
4:52 PM 39.7 °F 35.6 °F 23.0 °F 51% 30.33 in 10.0 mi WNW 5.8 mph - N/A   Overcast
5:12 PM 39.6 °F 36.3 °F 23.4 °F 52% 30.33 in 10.0 mi West 4.6 mph - N/A   Overcast
5:32 PM 39.7 °F 34.3 °F 23.0 °F 51% 30.33 in 10.0 mi West 8.1 mph - N/A   Overcast
5:52 PM 39.6 °F 35.4 °F 23.5 °F 53% 30.33 in 10.0 mi WNW 5.8 mph - N/A   Overcast
6:12 PM 39.7 °F 34.3 °F 23.0 °F 51% 30.33 in 10.0 mi West 8.1 mph - N/A   Overcast
6:32 PM 39.7 °F 33.7 °F 23.0 °F 51% 30.34 in 10.0 mi West 9.2 mph 17.3 mph N/A   Overcast
6:52 PM 39.6 °F 33.5 °F 23.7 °F 53% 30.34 in 10.0 mi West 9.2 mph - N/A   Overcast
7:12 PM 39.6 °F 33.0 °F 23.0 °F 52% 30.34 in 10.0 mi WNW 10.4 mph - N/A   Overcast
7:32 PM 39.2 °F 33.6 °F 23.0 °F 52% 30.34 in 10.0 mi West 8.1 mph - N/A   Overcast
7:52 PM 38.7 °F 32.4 °F 23.0 °F 53% 30.34 in 10.0 mi West 9.2 mph - N/A   Overcast
8:12 PM 38.7 °F 33.6 °F 23.4 °F 54% 30.34 in 10.0 mi WNW 6.9 mph - N/A   Overcast
8:32 PM 38.7 °F 34.3 °F 24.3 °F 56% 30.35 in 10.0 mi West 5.8 mph - N/A   Overcast
8:52 PM 38.3 °F 34.8 °F 25.0 °F 59% 30.35 in 10.0 mi West 4.6 mph - N/A   Overcast
9:12 PM 38.3 °F 34.8 °F 25.3 °F 60% 30.35 in 10.0 mi West 4.6 mph - N/A   Overcast
9:32 PM 38.3 °F 33.2 °F 25.0 °F 59% 30.35 in 10.0 mi WNW 6.9 mph - N/A   Overcast
9:52 PM 37.6 °F 32.3 °F 25.3 °F 61% 30.35 in 10.0 mi West 6.9 mph - N/A   Mostly Cloudy
10:12 PM 36.9 °F 33.1 °F 25.3 °F 63% 30.35 in 10.0 mi West 4.6 mph - N/A   Clear
10:32 PM 35.6 °F 32.8 °F 25.5 °F 67% 30.35 in 10.0 mi West 3.5 mph - N/A   Clear
10:52 PM 34.7 °F 31.8 °F 25.7 °F 70% 30.35 in 10.0 mi WSW 3.5 mph - N/A   Clear
11:32 PM 33.1 °F 28.7 °F 25.9 °F 75% 30.35 in 10.0 mi WSW 4.6 mph - N/A   Clear
11:52 PM 32.2 °F 26.7 °F 26.1 °F 78% 30.35 in 10.0 mi WSW 5.8 mph - N/A   Clear